{"data":{"norad_id":63261,"epoch":"2026-09-19T22:10:53.834016Z","epoch_age_seconds":63969,"freshness":"FRESH","line1":"1 63261U 25052BD  26262.92423419  .00003120  00000+0  25777-3 0  9990","line2":"2 63261  97.6771 154.9435 0005545  84.6681 275.5174 14.99673345 82934","mean_motion":14.99673345,"eccentricity":0.0005545,"inclination_deg":97.6771,"raan_deg":154.9435,"arg_perigee_deg":84.6681,"mean_anomaly_deg":275.5174,"bstar":0.00025777,"rev_number":8293,"period_min":96.020910473674,"perigee_km":564.05322842477,"apogee_km":571.75638879051,"semimajor_km":6946.0418086076,"source":"CELESTRAK","updated_at":"2026-09-20T09:00:34.874739Z"}}